User: anonymous   Login
Location: Hylvaty SDH
(49.9612°N, 16.4057°E)
Time: 19:36:53
(UTC+02:00)
Language:

A-11 Canister half - Orbit

View from above orbital plane
View from above orbital plane
View from above satellite
View from above satellite

Ground track
Ground track

The orbit data is extracted from the following two-line orbital elements,

1    51U 60009C   20221.88896703 -.00000065 +00000-0 +19333-3 0  9991
2    51 047.2110 185.1974 0108756 318.7231 040.5375 12.18276483670481
Epoch (UTC): 08 August 2020 21:20:06
Eccentricity: 0.0108756
inclination: 47.2110°
perigee height: 1513 km
apogee height: 1687 km
right ascension of ascending node: 185.1974°
argument of perigee: 318.7231°
revolutions per day: 12.18276483
mean anomaly at epoch: 40.5375°
orbit number at epoch: 67048

The dashed part of the orbit path shows where the satellite is in the earth's shadow,  

DLR